Theta_e
286 286 285 285 284 283 283 282 283 283 285 288 285 286 285 285 285 286 287 289 291 291 291 295 297 297 299 300 295 296 307 319 322 323 330 328 327 328
286 285 285 285 284 284 282 280 281 281 282 285 286 283 282 282 283 283 283 283 284 286 290 291 292 295 297 300 300 297 298 311 319 321 324 323 327 325
285 285 285 285 285 283 280 278 277 277 278 281 280 281 279 279 280 281 281 282 282 283 285 287 289 291 293 298 301 299 298 304 315 320 322 325 325 326
284 284 284 284 282 280 278 276 275 274 274 275 276 276 276 276 277 277 279 279 280 280 282 284 288 292 291 293 298 299 302 301 314 320 322 324 326 326
283 283 283 281 280 278 275 274 273 272 272 272 273 273 273 274 275 276 276 277 280 283 284 285 287 290 291 293 297 304 302 301 309 316 320 326 326 324
282 282 282 279 277 276 274 273 273 273 272 272 272 273 273 274 275 276 277 278 281 283 284 287 289 291 294 296 299 301 300 300 304 313 320 326 324 325
281 281 279 278 276 274 274 274 274 274 274 274 274 274 274 275 275 276 278 278 279 281 283 286 292 295 297 298 298 298 298 299 306 313 318 321 324 324
280 278 277 276 275 273 274 275 276 276 276 276 276 276 276 276 276 277 277 279 281 281 283 285 288 296 297 295 294 299 297 299 305 313 320 323 324 323
278 277 275 274 274 274 274 274 275 275 275 275 276 276 276 277 278 278 279 279 280 280 281 282 284 287 291 293 294 297 302 302 305 313 319 323 323 322
276 275 275 274 274 275 275 275 275 275 275 275 275 275 276 276 277 277 278 278 279 279 280 281 284 286 290 292 293 295 300 304 303 314 319 322 322 322
275 275 274 274 273 275 275 274 275 275 274 275 276 277 277 278 278 279 279 279 280 280 281 282 285 287 290 292 296 296 302 305 305 310 316 322 322 321
275 275 275 273 274 275 275 275 274 274 274 275 276 276 277 277 278 280 281 281 282 283 282 282 287 290 291 293 295 298 301 305 308 309 314 320 322 322
275 274 274 273 275 274 274 273 273 274 275 274 275 277 277 277 278 279 279 279 280 281 282 282 283 285 291 291 291 294 302 305 309 313 315 320 323 321
274 273 274 274 273 272 272 272 272 273 272 272 273 275 278 279 279 280 280 281 281 281 282 282 283 286 288 290 291 291 300 305 310 315 317 319 319 321
273 273 273 274 275 275 272 271 270 270 270 270 271 272 274 276 279 281 281 282 283 283 283 283 284 286 289 290 290 290 292 302 311 316 316 316 317 319
273 273 274 275 275 274 273 271 269 269 270 270 271 271 272 273 275 279 281 284 285 285 286 286 286 288 289 290 290 290 291 293 305 316 316 317 318 318
272 273 275 274 274 273 272 270 269 269 269 270 270 270 271 273 274 275 279 284 286 286 287 288 288 289 290 290 290 291 292 295 301 306 315 315 315 315
273 274 273 272 272 271 269 269 269 269 269 269 270 270 270 272 272 273 276 281 285 287 287 287 289 290 290 291 292 292 295 298 302 311 315 315 315 314
273 272 272 271 271 270 269 269 268 269 269 270 270 270 271 271 270 271 273 277 282 286 289 290 290 291 292 292 293 296 299 300 303 313 314 314 315 314
272 271 271 271 270 270 269 269 269 269 269 270 270 271 270 269 269 269 271 273 277 283 286 290 290 291 292 293 294 297 300 304 305 313 314 314 314 314
270 270 270 270 270 270 269 269 269 269 270 270 271 270 269 269 269 269 270 271 274 279 283 288 292 292 292 293 294 298 303 306 308 313 313 314 314 314
270 270 269 270 270 270 270 270 269 269 270 271 270 269 269 268 268 269 270 270 272 277 281 288 290 293 294 294 296 300 303 308 311 313 313 313 314 314
269 269 269 269 270 270 270 270 270 269 270 271 270 269 268 268 269 269 270 270 272 276 281 287 290 291 293 296 299 302 307 310 311 312 313 314 314 314
Wind_Speed
27 28 30 31 32 34 35 34 31 46 64 69 53 52 46 44 46 42 42 43 42 45 48 44 44 44 50 56 53 58 66 58 55 55 66 67 67 74
28 30 31 32 36 38 39 38 34 38 48 66 70 57 51 49 47 46 49 57 59 57 56 50 52 54 52 51 52 55 63 65 56 54 52 52 81 68
28 31 32 33 37 40 39 40 38 36 42 68 66 70 56 49 47 47 49 52 55 55 54 53 58 61 61 59 51 55 53 65 62 55 57 62 77 63
29 31 33 36 38 38 39 40 39 37 37 46 61 61 62 50 47 49 51 52 56 59 56 51 51 49 59 64 57 57 56 61 62 58 56 67 74 69
30 32 35 36 38 38 38 39 39 35 37 40 51 50 57 53 53 52 56 53 48 43 45 50 55 56 54 59 62 56 57 58 68 59 61 71 78 69
32 33 35 34 36 36 35 38 41 42 42 44 46 47 46 46 45 45 51 44 45 44 42 45 48 50 51 51 58 51 50 58 62 62 63 69 77 82
33 34 33 32 32 31 34 37 39 43 43 44 47 45 44 43 42 42 44 46 54 47 47 44 42 43 43 51 40 43 49 56 63 65 66 69 74 75
33 32 32 34 35 30 32 34 37 42 46 46 48 48 48 48 47 46 45 42 48 45 30 42 32 32 29 29 33 36 47 52 59 62 64 69 77 80
31 31 32 34 36 39 38 39 42 42 42 47 53 51 52 49 49 49 46 45 50 55 41 51 52 42 37 32 29 38 39 46 49 58 63 77 81 88
29 30 33 36 36 36 41 45 46 45 45 47 51 54 52 52 54 56 54 53 54 56 41 43 52 45 42 39 35 31 42 45 52 56 74 83 87 95
29 30 29 38 33 34 40 46 51 50 48 44 46 49 51 51 49 49 55 52 54 52 41 35 41 43 40 42 35 33 40 44 52 53 72 87 91 94
30 33 36 29 32 37 43 46 51 47 47 48 51 54 46 48 49 45 49 53 48 51 45 39 42 33 31 27 24 17 37 42 48 56 64 95 100 100
32 36 36 31 37 38 34 40 39 40 45 46 45 39 42 46 50 48 52 55 54 57 52 42 49 40 32 35 44 38 26 35 47 55 76 87 105 99
30 35 34 35 35 34 32 32 35 36 40 37 38 37 35 40 46 49 49 51 55 57 50 45 45 43 42 42 42 50 30 23 36 59 84 89 90 101
27 27 32 35 35 36 34 30 35 29 34 36 38 39 37 40 37 40 48 47 51 53 48 44 47 49 44 44 44 44 43 20 30 63 76 89 95 99
26 30 29 31 32 34 37 36 39 34 33 37 38 41 41 38 40 44 45 41 43 43 42 42 46 47 45 47 43 46 44 41 14 61 73 80 85 88
23 26 30 33 36 39 38 38 40 41 36 40 40 41 41 36 39 37 36 36 43 41 36 38 37 40 41 47 43 46 50 46 39 34 69 71 76 81
22 27 30 34 36 38 40 42 41 45 40 44 43 42 41 38 42 43 36 37 34 40 40 39 33 36 39 43 44 48 45 40 37 42 77 70 66 73
22 26 30 34 36 38 40 42 43 47 42 46 47 45 38 44 39 39 37 35 39 31 35 36 35 34 33 35 37 34 37 39 33 59 66 70 67 70
22 27 30 32 36 39 41 43 46 47 46 52 48 43 45 41 40 38 36 35 36 42 35 38 40 38 38 38 33 32 27 33 31 58 69 74 68 68
22 25 28 30 34 38 42 44 45 43 48 52 49 48 45 41 40 38 37 36 36 40 44 38 38 41 41 39 37 42 27 27 39 68 68 68 63 55
20 24 27 30 33 38 41 45 47 44 49 51 55 51 47 42 40 40 38 38 37 38 42 44 43 33 36 37 37 36 26 33 51 68 73 80 74 43
20 23 26 29 32 36 41 44 47 47 47 53 60 56 50 45 42 39 38 38 37 37 38 41 41 38 44 40 39 34 32 38 54 57 66 71 74 65
Wind_Direction
301 299 296 295 293 290 285 280 273 288 293 297 294 294 290 292 294 285 281 277 276 273 267 262 267 268 266 265 261 250 242 236 234 234 234 221 217 220
296 295 295 296 292 289 281 274 264 265 276 289 291 288 290 290 287 284 281 281 280 269 268 261 261 260 261 261 263 259 247 238 232 234 241 216 211 213
296 296 297 297 293 288 287 284 276 263 264 282 283 289 289 288 287 283 281 280 280 279 272 266 260 257 253 253 256 259 252 236 230 231 230 218 211 222
297 299 301 298 294 293 293 292 288 277 266 271 285 289 289 292 290 286 282 278 277 278 275 273 259 267 257 248 253 256 248 236 226 229 227 225 209 207
300 301 301 300 300 302 299 295 290 284 276 271 277 284 289 289 289 286 288 290 291 292 291 274 262 258 251 246 248 244 246 238 229 226 220 220 206 212
301 304 305 306 306 304 300 299 296 290 282 276 275 279 282 288 287 286 288 293 297 296 292 285 276 263 251 251 246 240 244 235 229 226 221 211 210 206
305 308 308 311 313 293 290 290 290 285 281 277 274 274 275 280 278 283 283 287 292 294 291 290 278 260 253 240 247 250 248 234 222 223 222 222 218 211
309 311 311 316 320 299 293 288 285 285 285 281 279 274 272 270 274 276 280 282 288 292 287 290 305 246 248 255 263 250 245 233 226 222 220 224 218 205
311 315 321 318 315 309 302 295 290 285 280 281 279 277 276 275 276 276 275 277 280 286 294 292 281 285 291 274 278 252 235 238 233 226 223 214 205 199
319 325 323 318 312 306 303 299 295 293 289 285 278 278 274 274 268 271 275 278 278 281 283 278 287 278 284 285 287 270 240 237 229 218 220 211 202 196
325 324 320 315 314 310 306 302 301 295 294 287 280 275 271 269 267 272 270 271 269 275 276 278 280 280 278 286 293 267 238 234 232 222 211 206 205 206
325 319 321 314 315 315 307 302 301 301 301 300 295 281 274 265 262 263 268 269 274 273 271 275 277 264 274 270 280 265 235 236 228 232 216 205 198 196
311 317 326 325 320 319 313 305 301 304 302 297 297 292 276 276 269 273 265 264 264 267 270 268 269 273 285 290 291 291 242 241 233 223 209 204 203 198
315 318 330 322 322 323 321 322 316 302 304 311 304 290 288 281 272 270 273 269 269 263 274 264 256 261 268 273 279 289 274 259 234 211 202 202 203 196
314 324 322 329 332 337 339 329 329 325 325 319 311 308 298 286 283 276 269 266 272 265 267 262 251 253 249 258 273 284 287 283 229 201 193 194 191 190
330 329 332 336 343 345 348 353 342 336 325 322 315 311 309 297 294 278 273 272 266 260 272 257 246 250 252 253 263 268 275 272 254 199 193 194 194 191
323 336 344 351 351 351 352 353 347 342 329 328 321 316 315 306 301 291 277 279 259 259 261 258 258 251 256 262 258 264 266 266 259 246 187 181 186 183
348 353 359 359 356 355 353 350 348 341 337 329 324 318 314 307 304 299 285 269 278 251 259 260 253 251 253 255 255 260 263 266 265 213 184 184 184 182
1 5 5 3 359 359 357 354 342 344 337 329 323 320 314 309 304 300 292 278 272 273 260 254 250 238 244 252 258 260 253 255 261 181 176 175 182 181
10 9 5 1 0 0 360 356 351 347 337 332 328 324 318 313 307 300 295 287 275 268 273 254 243 239 239 245 253 252 244 263 236 177 177 182 188 183
9 9 3 359 0 1 1 359 353 345 336 335 332 327 323 318 309 304 299 290 281 269 267 262 249 260 257 257 260 262 263 231 214 178 177 177 180 181
4 4 1 359 358 358 359 359 356 348 336 338 335 331 327 322 314 309 302 294 284 273 266 258 257 261 258 258 250 249 259 236 191 184 180 177 174 174
1 359 359 359 359 358 359 357 358 348 338 340 338 335 332 326 323 315 306 298 287 278 268 262 256 256 257 249 236 237 224 196 183 177 182 184 183 188